Terug naar catalogus

COSMOS 546

ActiefNavigatieVLEO
NORAD 6350·PAYLOAD·🇷🇺 Russia

Gelanceerd Jan 26, 1973 vanaf Kapustin Yar

Loading…

Volgende Passages (komende 24 uur)

TLE

VersSource: Space-Track

Epoch: Sep 13, 2026, 22:13 UTC

1  6350U 73005A   26256.92577425  .00001588  00000-0  65217-4 0  9998
2  6350  50.6345  86.0833 0014635 277.8965  82.0341 15.30443579956818

Volg COSMOS 546 in realtime met AllMySat

Download on the App Store